Louisville, KY

2:27 PM EST on November 23, 2017 (GMT -0500)
Louisville International-Standiford

Weather History for KSDF - May, 2014

Change the Weather History Date:

Thursday, May 1, 2014

  Actual Average Record
Temperature  
Mean Temperature 55 °F 63 °F  
Max Temperature 63 °F 73 °F 92 °F (1951)
Min Temperature 47 °F 52 °F 31 °F (1963)
Degree Days  
Heating Degree Days 10 4  
Month to date heating degree days 10 4  
Since 1 July heating degree days 4488 4029  
Cooling Degree Days 0 2  
Month to date cooling degree days 0 2  
Year to date cooling degree days 31 45  
Growing Degree Days 4 (Base 50)    
Moisture  
Dew Point 40 °F    
Average Humidity 65    
Maximum Humidity 93    
Minimum Humidity 36    
Precipitation  
Precipitation 0.00 in 0.17 in 2.34 in (1983)
Month to date precipitation 0.00 0.17  
Year to date precipitation 15.47 14.77  
Snow  
Snow 0.00 in 0.00 in T in (1909)
Month to date snowfall 0.0 0.0  
Since 1 July snowfall 26.0 12.5  
Snow Depth 0.00 in    
Sea Level Pressure  
Sea Level Pressure 29.93 in    
Wind  
Wind Speed 12 mph (WSW)    
Max Wind Speed 23 mph    
Max Gust Speed 30 mph    
Visibility 10 miles    
Events      
T = Trace of Precipitation, MM = Missing Value Source: NWS Daily Summary

Daily Weather History Graph

Daily Weather History Graph

Search for Another Location

Airport or City:

Trip Planner

Search our weather history database for the weather conditions in past years. The results will help you decide how hot, cold, wet, or windy it might be!

Date:

Astronomy

May. 01, 2014 Rise Set
Actual Time 6:46 AM EDT 8:34 PM EDT
Civil Twilight 6:18 AM EDT 9:02 PM EDT
Nautical Twilight 5:43 AM EDT 9:37 PM EDT
Astronomical Twilight 5:07 AM EDT 10:14 PM EDT
Moon 8:34 AM EDT (5/1) 11:05 PM EDT (5/1)
Length of Visible Light 14h 44m
Length of Day
13h 47m
Waxing Crescent, 6% of the Moon is Illuminated
May 1
Waxing Crescent
May 6
First Quarter
May 14
Full
May 21
Last Quarter
May 28
New

Hourly Weather History & Observations

Time (EDT) Temp. Dew Point Humidity Pressure Visibility Wind Dir Wind Speed Gust Speed Precip Events Conditions
12:56 AM 51.8 °F 44.6 °F 76% 29.94 in 10.0 mi WSW 5.8 mph - N/A   Overcast
1:56 AM 51.8 °F 44.6 °F 76% 29.94 in 10.0 mi WSW 9.2 mph - N/A   Overcast
2:56 AM 51.1 °F 43.0 °F 74% 29.92 in 10.0 mi SW 8.1 mph - N/A   Overcast
3:56 AM 50.0 °F 43.0 °F 77% 29.93 in 10.0 mi SW 9.2 mph - N/A   Mostly Cloudy
4:56 AM 48.9 °F 43.0 °F 80% 29.92 in 10.0 mi SSW 8.1 mph - N/A   Scattered Clouds
5:56 AM 48.0 °F 43.0 °F 83% 29.93 in 10.0 mi SW 8.1 mph - N/A   Partly Cloudy
6:56 AM 46.9 °F 44.1 °F 90% 29.93 in 10.0 mi SW 8.1 mph - N/A   Scattered Clouds
7:56 AM 48.9 °F 44.1 °F 83% 29.94 in 10.0 mi SW 9.2 mph - N/A   Mostly Cloudy
8:56 AM 50.0 °F 44.1 °F 80% 29.94 in 10.0 mi SW 9.2 mph - N/A   Scattered Clouds
9:56 AM 55.4 °F 42.8 °F 63% 29.94 in 10.0 mi WSW 13.8 mph - N/A   Partly Cloudy
10:56 AM 59.0 °F 39.9 °F 49% 29.94 in 10.0 mi WSW 16.1 mph 24.2 mph N/A   Mostly Cloudy
11:56 AM 57.9 °F 36.0 °F 44% 29.93 in 10.0 mi WSW 17.3 mph 25.3 mph N/A   Mostly Cloudy
12:56 PM 59.0 °F 36.0 °F 42% 29.92 in 10.0 mi WSW 15.0 mph 21.9 mph N/A   Mostly Cloudy
1:56 PM 61.0 °F 36.0 °F 39% 29.91 in 10.0 mi WSW 18.4 mph 25.3 mph N/A   Mostly Cloudy
2:56 PM 60.8 °F 35.6 °F 39% 29.92 in 10.0 mi West 17.3 mph 26.5 mph N/A   Overcast
3:56 PM 61.0 °F 36.0 °F 39% 29.91 in 10.0 mi West 18.4 mph - N/A   Overcast
4:56 PM 62.1 °F 36.0 °F 38% 29.90 in 10.0 mi WSW 17.3 mph 26.5 mph N/A   Overcast
5:56 PM 60.1 °F 36.0 °F 41% 29.91 in 10.0 mi West 18.4 mph - N/A   Overcast
6:56 PM 59.0 °F 35.6 °F 42% 29.91 in 10.0 mi West 15.0 mph 21.9 mph N/A   Overcast
7:56 PM 57.9 °F 36.0 °F 44% 29.92 in 10.0 mi West 15.0 mph - N/A   Overcast
8:56 PM 57.0 °F 37.9 °F 49% 29.93 in 10.0 mi West 10.4 mph - N/A   Overcast
9:56 PM 55.9 °F 39.0 °F 53% 29.94 in 10.0 mi WNW 9.2 mph - N/A   Overcast
10:56 PM 54.0 °F 39.0 °F 57% 29.95 in 10.0 mi WNW 9.2 mph - N/A   Overcast
11:56 PM 54.0 °F 39.0 °F 57% 29.96 in 10.0 mi West 9.2 mph - N/A   Overcast